Cahokia, IL

6:36 AM CST on January 22, 2018 (GMT -0600)
Saint Louis Downtown

Weather History for KCPS - October, 2014

Change the Weather History Date:

Friday, October 17, 2014

  Actual Average Record
Temperature  
Mean Temperature 62 °F -  
Max Temperature 70 °F 59 °F 89 °F (2016)
Min Temperature 54 °F 45 °F 28 °F (2001)
Degree Days  
Heating Degree Days 3    
Growing Degree Days 12 (Base 50)    
Moisture  
Dew Point 48 °F    
Average Humidity 64    
Maximum Humidity 80    
Minimum Humidity 46    
Precipitation  
Precipitation 0.00 in - - ()
Sea Level Pressure  
Sea Level Pressure 29.84 in    
Wind  
Wind Speed 8 mph (West)    
Max Wind Speed 21 mph    
Max Gust Speed 30 mph    
Visibility 10 miles    
Events      
Averages and records for this station are not official NWS values.
T = Trace of Precipitation, MM = Missing Value Source: NWS Daily Summary

Daily Weather History Graph

Daily Weather History Graph

Search for Another Location

Airport or City:

Trip Planner

Search our weather history database for the weather conditions in past years. The results will help you decide how hot, cold, wet, or windy it might be!

Date:

Astronomy

Oct. 17, 2014 Rise Set
Actual Time 7:11 AM CDT 6:19 PM CDT
Civil Twilight 6:44 AM CDT 6:46 PM CDT
Nautical Twilight 6:14 AM CDT 7:17 PM CDT
Astronomical Twilight 5:43 AM CDT 7:47 PM CDT
Moon 1:20 AM CDT (10/17) 3:03 PM CDT (10/17)
Length of Visible Light 12h 01m
Length of Day
11h 07m
Waning Crescent, 32% of the Moon is Illuminated
Oct 17
Waning Crescent
Oct 23
New
Oct 30
First Quarter
Nov 6
Full
Nov 14
Last Quarter

Hourly Weather History & Observations

Time (CDT) Temp. Dew Point Humidity Pressure Visibility Wind Dir Wind Speed Gust Speed Precip Events Conditions
12:20 AM - - N/A% - - SSW 5.8 mph - N/A   Scattered Clouds
12:53 AM 54.0 °F 48.0 °F 80% 29.73 in 10.0 mi SSE 3.5 mph - N/A   Clear
1:53 AM 59.0 °F 48.0 °F 67% 29.73 in 10.0 mi SW 5.8 mph - N/A   Clear
2:53 AM 57.0 °F 48.9 °F 74% 29.73 in 10.0 mi SW 4.6 mph - N/A   Clear
3:53 AM 57.0 °F 50.0 °F 77% 29.73 in 10.0 mi WSW 5.8 mph - N/A   Clear
4:53 AM 57.9 °F 51.1 °F 78% 29.74 in 10.0 mi WSW 5.8 mph - N/A   Clear
5:53 AM 55.9 °F 50.0 °F 80% 29.75 in 10.0 mi West 3.5 mph - N/A   Clear
6:53 AM 55.0 °F 48.9 °F 80% 29.78 in 10.0 mi WSW 4.6 mph - N/A   Clear
7:53 AM 55.9 °F 48.9 °F 77% 29.80 in 10.0 mi West 6.9 mph - N/A   Clear
8:53 AM 61.0 °F 48.0 °F 62% 29.81 in 10.0 mi West 9.2 mph - N/A   Clear
9:53 AM 63.0 °F 46.9 °F 56% 29.83 in 10.0 mi WNW 9.2 mph - N/A   Clear
10:53 AM 66.0 °F 48.0 °F 52% 29.83 in 10.0 mi WNW 12.7 mph - N/A   Clear
11:53 AM 68.0 °F 48.0 °F 49% 29.84 in 10.0 mi WNW 13.8 mph - N/A   Clear
12:53 PM 69.1 °F 48.0 °F 47% 29.83 in 10.0 mi WNW 13.8 mph 21.9 mph N/A   Clear
1:53 PM 70.0 °F 48.0 °F 46% 29.83 in 10.0 mi NW 16.1 mph 24.2 mph 0.00 in   Clear
2:53 PM 69.1 °F 48.0 °F 47% 29.83 in 10.0 mi NW 20.7 mph 25.3 mph N/A   Clear
3:53 PM 70.0 °F 48.9 °F 47% 29.86 in 10.0 mi NW 17.3 mph 25.3 mph N/A   Partly Cloudy
4:53 PM 66.0 °F 48.9 °F 54% 29.88 in 10.0 mi NW 19.6 mph 29.9 mph N/A   Clear
5:53 PM 64.0 °F 46.0 °F 52% 29.91 in 10.0 mi WNW 12.7 mph - N/A   Clear
6:53 PM 61.0 °F 46.0 °F 58% 29.91 in 10.0 mi WNW 8.1 mph - N/A   Clear
7:53 PM 60.1 °F 46.9 °F 62% 29.93 in 10.0 mi West 5.8 mph - N/A   Clear
8:53 PM 57.0 °F 46.9 °F 69% 29.96 in 10.0 mi West 5.8 mph - N/A   Clear
9:53 PM 57.0 °F 48.0 °F 72% 29.97 in 10.0 mi West 5.8 mph - N/A   Clear
10:53 PM 55.9 °F 46.9 °F 72% 29.98 in 10.0 mi WNW 6.9 mph - N/A   Clear
11:53 PM 55.9 °F 46.9 °F 72% 29.98 in 10.0 mi NW 10.4 mph - N/A   Clear